| time (UTC) | temp C | wind direction | speed KPH | gust KPH | rain 1hr cm | rain 24hr cm | rain mn cm | humidity % | barometer mb |
| 20260502231142 | 17 | 0.0 | 0.0 | 0.00 | 0.00 | 0.00 | 50 | 1019.7 | |
| 20260502225642 | 17 | 0.0 | 0.0 | 0.00 | 0.00 | 0.00 | 49 | 1019.9 | |
| 20260502224142 | 17 | 0.0 | 0.0 | 0.00 | 0.00 | 0.00 | 48 | 1019.9 | |
| 20260502222642 | 17 | 0.0 | 0.0 | 0.00 | 0.00 | 0.00 | 47 | 1020.0 | |
| 20260502221142 | 18 | 0.0 | 0.0 | 0.00 | 0.00 | 0.00 | 47 | 1020.0 | |
| 20260502215642 | 18 | 0.0 | 0.0 | 0.00 | 0.00 | 0.00 | 46 | 1020.0 | |
| 20260502214142 | 18 | 0.0 | 0.0 | 0.00 | 0.00 | 0.00 | 46 | 1019.9 | |
| 20260502212642 | 18 | 0.0 | 0.0 | 0.00 | 0.00 | 0.00 | 47 | 1019.9 | |
| 20260502211142 | 18 | 0.0 | 0.0 | 0.00 | 0.00 | 0.00 | 47 | 1019.8 | |
| 20260502205642 | 18 | 0.0 | 0.0 | 0.00 | 0.00 | 0.00 | 48 | 1019.8 | |
| 20260502204142 | 19 | 0.0 | 0.0 | 0.00 | 0.00 | 0.00 | 48 | 1019.8 | |
| 20260502202642 | 19 | 0.0 | 0.0 | 0.00 | 0.00 | 0.00 | 48 | 1019.9 | |
| 20260502201141 | 20 | 0.0 | 0.0 | 0.00 | 0.00 | 0.00 | 47 | 1020.0 | |
| 20260502195641 | 20 | 0.0 | 0.0 | 0.00 | 0.00 | 0.00 | 47 | 1020.0 | |
| 20260502194142 | 20 | 0.0 | 0.0 | 0.00 | 0.00 | 0.00 | 46 | 1019.9 | |
| 20260502192641 | 20 | 0.0 | 0.0 | 0.00 | 0.00 | 0.00 | 45 | 1019.8 | |
| 20260502191141 | 21 | 0.0 | 0.0 | 0.00 | 0.00 | 0.00 | 44 | 1019.8 | |
| 20260502185641 | 21 | 0.0 | 0.0 | 0.00 | 0.00 | 0.00 | 43 | 1019.7 | |
| 20260502184141 | 21 | 0.0 | 0.0 | 0.00 | 0.00 | 0.00 | 42 | 1019.6 | |
| 20260502182641 | 22 | 0.0 | 0.0 | 0.00 | 0.00 | 0.00 | 41 | 1019.5 | |
| 20260502181141 | 22 | 0.0 | 0.0 | 0.00 | 0.00 | 0.00 | 40 | 1019.4 | |
| 20260502164141 | 23 | 0.0 | 0.0 | 0.00 | 0.00 | 0.00 | 37 | 1019.5 | |
| 20260502162641 | 23 | 0.0 | 0.0 | 0.00 | 0.00 | 0.00 | 36 | 1019.6 | |
| 20260502161141 | 23 | 0.0 | 0.0 | 0.00 | 0.00 | 0.00 | 35 | 1019.6 | |
| 20260502151141 | 23 | 0.0 | 0.0 | 0.00 | 0.00 | 0.00 | 29 | 1020.2 | |
| 20260502122641 | 24 | 0.0 | 0.0 | 0.00 | 0.00 | 0.00 | 29 | 1022.3 | |
| 20260502121141 | 24 | 0.0 | 0.0 | 0.00 | 0.00 | 0.00 | 29 | 1022.5 | |
| 20260502115641 | 24 | 0.0 | 0.0 | 0.00 | 0.00 | 0.00 | 29 | 1022.6 | |
| 20260502114141 | 25 | 0.0 | 0.0 | 0.00 | 0.00 | 0.00 | 29 | 1022.8 | |
| 20260502112641 | 25 | 0.0 | 0.0 | 0.00 | 0.00 | 0.00 | 29 | 1023.0 | |
| 20260502111141 | 25 | 0.0 | 0.0 | 0.00 | 0.00 | 0.00 | 30 | 1023.3 | |
| 20260502105641 | 24 | 0.0 | 0.0 | 0.00 | 0.00 | 0.00 | 30 | 1023.4 | |
| 20260502104141 | 24 | 0.0 | 0.0 | 0.00 | 0.00 | 0.00 | 29 | 1023.7 | |
| 20260502102641 | 24 | 0.0 | 0.0 | 0.00 | 0.00 | 0.00 | 30 | 1023.9 | |
| 20260502101141 | 24 | 0.0 | 0.0 | 0.00 | 0.00 | 0.00 | 32 | 1023.9 | |
| 20260502091141 | 23 | 0.0 | 0.0 | 0.00 | 0.00 | 0.00 | 35 | 1024.6 | |
| 20260502071141 | 21 | 0.0 | 0.0 | 0.00 | 0.00 | 0.00 | 37 | 1025.4 | |
| 20260502065641 | 20 | 0.0 | 0.0 | 0.00 | 0.00 | 0.00 | 38 | 1025.5 | |
| 20260502064141 | 21 | 0.0 | 0.0 | 0.00 | 0.00 | 0.00 | 38 | 1025.5 | |
| 20260502062641 | 21 | 0.0 | 0.0 | 0.00 | 0.00 | 0.00 | 39 | 1025.5 | |
| 20260502061141 | 20 | 0.0 | 0.0 | 0.00 | 0.00 | 0.00 | 41 | 1025.5 | |
| 20260502055641 | 18 | 0.0 | 0.0 | 0.00 | 0.00 | 0.00 | 43 | 1025.7 | |
| 20260502054141 | 18 | 0.0 | 0.0 | 0.00 | 0.00 | 0.00 | 45 | 1025.6 | |
| 20260502052641 | 16 | 0.0 | 0.0 | 0.00 | 0.00 | 0.00 | 48 | 1025.6 | |
| 20260502051141 | 15 | 0.0 | 0.0 | 0.00 | 0.00 | 0.00 | 51 | 1025.7 | |
| 20260502045641 | 13 | 0.0 | 0.0 | 0.00 | 0.00 | 0.00 | 54 | 1025.6 | |
| 20260502044141 | 12 | 0.0 | 0.0 | 0.00 | 0.00 | 0.00 | 55 | 1025.6 | |
| 20260502042641 | 12 | 0.0 | 0.0 | 0.00 | 0.00 | 0.00 | 53 | 1025.6 | |
| 20260502041141 | 12 | 0.0 | 0.0 | 0.00 | 0.00 | 0.00 | 52 | 1025.5 | |
| 20260502035641 | 12 | 0.0 | 0.0 | 0.00 | 0.00 | 0.00 | 52 | 1025.6 | |
| 20260502034141 | 12 | 0.0 | 0.0 | 0.00 | 0.00 | 0.00 | 51 | 1025.6 | |
| 20260502032641 | 12 | 0.0 | 0.0 | 0.00 | 0.00 | 0.00 | 51 | 1025.6 | |
| 20260502031141 | 12 | 0.0 | 0.0 | 0.00 | 0.00 | 0.00 | 50 | 1025.6 | |
| 20260502025641 | 12 | 0.0 | 0.0 | 0.00 | 0.00 | 0.00 | 51 | 1025.7 | |
| 20260502024141 | 12 | 0.0 | 0.0 | 0.00 | 0.00 | 0.00 | 51 | 1025.8 | |
| 20260502022642 | 12 | 0.0 | 0.0 | 0.00 | 0.00 | 0.00 | 49 | 1025.8 | |
| 20260502021142 | 13 | 0.0 | 0.0 | 0.00 | 0.00 | 0.00 | 49 | 1025.8 | |
| 20260502015642 | 13 | 0.0 | 0.0 | 0.00 | 0.00 | 0.00 | 49 | 1025.8 | |
| 20260502014142 | 13 | 0.0 | 0.0 | 0.00 | 0.00 | 0.00 | 48 | 1025.8 | |
| 20260502012642 | 13 | 0.0 | 0.0 | 0.00 | 0.00 | 0.00 | 47 | 1025.8 | |
| 20260502011142 | 13 | 0.0 | 0.0 | 0.00 | 0.00 | 0.00 | 47 | 1025.8 | |
| 20260502005642 | 13 | 0.0 | 0.0 | 0.00 | 0.00 | 0.00 | 47 | 1025.8 | |
| 20260502004142 | 13 | 0.0 | 0.0 | 0.00 | 0.00 | 0.00 | 46 | 1025.7 | |
| 20260502002642 | 13 | 0.0 | 0.0 | 0.00 | 0.00 | 0.00 | 46 | 1025.7 | |
| 20260502001142 | 14 | 0.0 | 0.0 | 0.00 | 0.00 | 0.00 | 44 | 1025.8 | |
| 20260501235642 | 14 | 0.0 | 0.0 | 0.00 | 0.00 | 0.00 | 44 | 1025.8 | |
| 20260501234142 | 15 | 0.0 | 0.0 | 0.00 | 0.00 | 0.00 | 43 | 1025.9 | |
| 20260501232642 | 15 | 0.0 | 0.0 | 0.00 | 0.00 | 0.00 | 44 | 1025.8 |